Location: Chimay
(50.0486°N, 4.3171°E)
Time: 20:37:34
(UTC+00:00)

Geosat - Pass Details

Date: 08 August 2020
Orbit: 763 x 765 km, 108.0° (Epoch: 21 September)

Event Time Altitude Azimuth Distance (km) Brightness Sun altitude
Exits shadow 22:20:48 49° 165° (SSE) 982 4.1 -21.4°
Maximum altitude 22:22:10 78° 240° (WSW) 787 3.9 -21.5°
Drops below altitude 10° 22:27:13 10° 328° (NNW) 2,312 7.6 -21.8°
Sets 22:29:31 0° 330° (NNW) 3,243 8.7 -21.9°
